Flag for U.S.A. Weather past 2 weeks in Downey, California, U.S.A.

Now
75 °F

Clear.


Feels Like: 75 °F
Forecast: 70 / 95 °F
Wind: 3 mph from Southwest

Location: Long Beach Airport

Current Time: Aug 28, 2015 at 1:08:45 AM

Latest Report: Aug 27, 2015 at 11:53 PM


Visibility: 10 mi

Pressure: 29.90 "Hg

Humidity: 85%

Dew point: 70 °F

Location of DowneyLocation

Historic Weather in Downey — Graph

°F

Downey temperature yesterday

Maximum temperature yesterday: 93 °F (at 3:53 PM)
Minimum temperature yesterday: 71 °F (at 5:53 AM)
Average temperature yesterday: 81 °F

Past Weeks' High & Low Weather Summary

 TemperatureHumidityPressure
High99 °F (Aug 15, 1:53 PM)90% (Aug 27, 5:53 AM)29.99 "Hg (Aug 27, 5:53 AM)
Low68 °F (Aug 23, 4:53 AM)27% (Aug 15, 1:53 PM)29.79 "Hg (Aug 16, 5:53 PM)
Average76 °F67%29.90 "Hg
* Reported Aug 12 11:53 PM — Aug 27 11:53 PM, Downey, Weather by CustomWeather, © 2015

Note: Actual official high and low records may vary slightly from our data, if they occured in-between our weather recording intervals... More about our weather records

Advertising

Downey weather history for previous 24 hours

 ConditionsComfort  
Time TempWeatherWind HumidityBarometerVisibility
11:53 PM
Thu, Aug 27
75 °FClear.3 mph85%29.90 "Hg10 mi
10:53 PM76 °FClear.7 mph82%29.91 "Hg10 mi
9:53 PM80 °FClear.No wind54%29.90 "Hg10 mi
8:53 PM81 °FClear.3 mph54%29.89 "Hg10 mi
7:53 PM82 °FSunny.7 mph49%29.87 "Hg10 mi
6:53 PM85 °FSunny.10 mph40%29.85 "Hg10 mi
5:53 PM92 °FSunny.10 mph27%29.85 "Hg10 mi
4:53 PM92 °FSunny.12 mph27%29.86 "Hg10 mi
3:53 PM93 °FSunny.10 mph33%29.87 "Hg10 mi
2:53 PM90 °FSunny.7 mph41%29.90 "Hg10 mi
1:53 PM87 °FSunny.8 mph50%29.93 "Hg10 mi
12:53 PM86 °FSunny.10 mph51%29.96 "Hg10 mi
11:53 AM85 °FSunny.9 mph55%29.97 "Hg10 mi
10:53 AM86 °FSunny.5 mph53%29.98 "Hg9 mi
9:53 AM83 °FSunny.3 mph61%29.98 "Hg9 mi
8:53 AM79 °FSunny.No wind67%29.97 "Hg7 mi
7:53 AM76 °FSunny.No wind74%29.97 "Hg7 mi
6:53 AM72 °FClear.No wind87%29.96 "Hg7 mi
5:53 AM71 °FClear.No wind90%29.95 "Hg8 mi
4:53 AM72 °FClear.No wind87%29.95 "Hg8 mi
3:53 AM72 °FClear.No wind87%29.94 "Hg8 mi
2:53 AM72 °FClear.No wind87%29.94 "Hg8 mi
1:53 AM73 °FClear.No wind88%29.96 "Hg9 mi
Weather by CustomWeather, © 2015

See weather overviewHow to use our weather pages